OPS 5798 DEB, 901

Orbit data source: Space-Track

OPS 5798 DEB, 901 is space debris in LEO originally from a launch on Tue, 06 Oct 1964 UTC launched from the Air Force Western Test Range (AFWTR). Debris objects in space refer to the collection of defunct objects orbiting the Earth. Examples of debris include non-operational satellites, rocket bodies, and fragments generated from explosions, collisions, or faulty payload assembly.

Loading next visibility...
OPS 5798 DEB details
Identifier
901, 1964-063D
Orbit
LEO
Last TLE update11 hours ago
Origin
Flag of USUSN BuWeps (US)
ManufacturerNAFI?
MissionSpacecraft
Bus & MotorUnknown
Mass~20 kg wet, ~20 kg dry
Launch date (UTC)
1964-10-06 (60 years ago)
Launch vehicleUnknown
Launch site
Air Force Western Test Range (AFWTR)
Object type
Payload
Rocket body
Debris
Shape & HBRUnknown
Radar Cross Section1.300 m², Large (>1 m²)

Expand to show TLE details & history

TLE from 11 hours ago
0 OPS 5798 DEB
1 00901U 64063D   25047.61181303  .00000159  00000-0  21753-3 0  9996
2 00901  90.2226  65.0087 0021377  96.4873  22.6638 13.55027184980691
Epoch: 2025-02-16T14:41Z
Definitive object data (Epoch: 2025-02-16T14:41:00.645Z)
Latitude60.84275°
Longitude-121.68942°
Altitude1,049.628 km
Speed7.34 km/s
True Right ascension16h 21m 37s
True Declination60° 42' 07"
Sunlit
Object was in daylight at TLE epoch
Visualization TLE readout
Latitude-51.02443°
Longitude-122.34954°
Altitude1,085.039 km
Speed7.303 km/s
Apparent Right ascension16h 30m 03s
Apparent Declination-45° 45' 51"
Sunlit
Object is in daylight
Visualization observer readout
Local Sidereal Time04:40:40
Azimuth162.474° S
Elevation-83.837°
Doppler factor1
Orbital elements
Apogee altitude1,066.743 km
Perigee altitude1,034.981 km
Semi-major axis7,428.999 km
Eccentricity0.0021377
Inclination90.2226°
RAAN65.0087°
Arg. of periapsis96.4873°
True anomaly22.75842°
Mean anomaly22.6638°
Eccentric anomaly22.71109°
Mean motion3.38959 °/min
BSTAR0.00021753
Orbital period106.21 mins
Loading maneuver chart data...
Loading historical data...
Loading historical data...
Loading historical data...
Loading historical data...
Loading historical data...
Loading historical data...
Loading historical data...

OPS 5798 DEB Visibility forecast

Observer location: undefined°, undefined

Span
Click to sort rows by Start time (UTC) header in descending order
Start Az.
Max El. time (UTC)
Max El. Az.
Max El.
End time (UTC)
End Az.
9 mins2025-02-17 02:37:56.454Z230.478° WSW2025-02-17 02:41:56.454Z274.802° WNW23.192°2025-02-17 02:46:56.454Z329.503° NNW
7 mins2025-02-17 11:59:56.454Z47.843° ENE2025-02-17 12:02:56.454Z80.416° E18.005°2025-02-17 12:06:56.454Z120.354° SE
10 mins2025-02-17 13:44:56.454Z352.485° N2025-02-17 13:48:56.454Z299.248° NW41.754°2025-02-17 13:54:56.454Z198.023° SSW
7 mins2025-02-17 23:55:56.454Z103.902° ESE2025-02-17 23:58:56.454Z72.048° E17.917°2025-02-18 00:02:56.454Z32.239° NE
11 mins2025-02-18 01:38:56.454Z188.634° SSW2025-02-18 01:43:56.454Z248.461° W42.333°2025-02-18 01:49:56.454Z350.653° N
|